Location: Betzi
(47.2343°N, 9.5260°E)
Time: 21:53:17
(UTC+00:00)

YAOGAN 11 - Pass Details

Date: 27 May 2022
Orbit: 613 x 666 km, 98.4° (Epoch: 29 June)

Event Time Altitude Azimuth Distance (km) Brightness Sun altitude
Exits shadow 01:09:55 17° 154° (SSE) 1,640 5.9 -17.1°
Maximum altitude 01:13:20 70° 73° (ENE) 694 4.4 -16.8°
Drops below altitude 10° 01:17:51 10° 350° (N) 2,079 7.5 -16.5°
Sets 01:20:06 0° 349° (NNW) 3,002 8.4 -16.3°
